,,Stat5,,Stat1,,Stat2,,Stat3,,Stat4,,Wind1,,Wind1,
time,status,PA1M_AVG,status,PR1M_SUM,status,RH1M_AVG,status,SR1M_AVG,status,TA1M_AVG,status,W1dAve1m,status,W1sAve1m,
2000-12-15, 00:00:00,VALID,917.628,VALID,0,VALID,97.6999,VALID,0,VALID,18.645,VALID,104,VALID,0.00102796,
2000-12-15, 00:01:00,VALID,917.628,VALID,0,VALID,97.6707,VALID,0.0169808,VALID,18.642,VALID,115,VALID,0.0011489,
2000-12-15, 00:02:00,VALID,917.638,VALID,0,VALID,97.5995,VALID,0.0169808,VALID,18.6227,VALID,213,VALID,0.154605,
2000-12-15, 00:03:00,VALID,917.636,VALID,0,VALID,97.5906,VALID,0,VALID,18.6134,VALID,205,VALID,0.0581597,
2000-12-15, 00:04:00,VALID,917.641,VALID,0,VALID,97.5257,VALID,-0.0339617,VALID,18.5904,VALID,183,VALID,0,
2000-12-15, 00:05:00,VALID,917.64,VALID,0,VALID,97.5359,VALID,-0.0849042,VALID,18.5816,VALID,160,VALID,0.691301,
2000-12-15, 00:06:00,VALID,917.645,VALID,0,VALID,97.5232,VALID,-0.0849042,VALID,18.5915,VALID,143,VALID,0.752148,
2000-12-15, 00:07:00,VALID,917.65,VALID,0,VALID,97.4621,VALID,-0.101885,VALID,18.5987,VALID,113,VALID,0.824013,
2000-12-15, 00:08:00,VALID,917.677,VALID,0,VALID,97.3706,VALID,-0.101885,VALID,18.5821,VALID,105,VALID,0.637891,
2000-12-15, 00:09:00,VALID,917.7,VALID,0,VALID,97.3528,VALID,-0.0849042,VALID,18.5657,VALID,97,VALID,0.530078,
2000-12-15, 00:10:00,VALID,917.731,VALID,0,VALID,97.3197,VALID,-0.101885,VALID,18.5465,VALID,103,VALID,0.457332,
2000-12-15, 00:11:00,VALID,917.749,VALID,0,VALID,97.307,VALID,-0.101885,VALID,18.5302,VALID,103,VALID,0.212377,
2000-12-15, 00:12:00,VALID,917.767,VALID,0,VALID,97.321,VALID,-0.101885,VALID,18.5175,VALID,98,VALID,0,
2000-12-15, 00:13:00,VALID,917.776,VALID,0,VALID,97.3617,VALID,-0.101885,VALID,18.5237,VALID,93,VALID,0,
2000-12-15, 00:14:00,VALID,917.781,VALID,0,VALID,97.3795,VALID,-0.101885,VALID,18.5175,VALID,93,VALID,0,
2000-12-15, 00:15:00,VALID,917.787,VALID,0,VALID,97.3808,VALID,-0.0849042,VALID,18.5108,VALID,121,VALID,0,
2000-12-15, 00:16:00,VALID,917.78,VALID,0,VALID,97.4532,VALID,-0.101885,VALID,18.5309,VALID,223,VALID,0,
2000-12-15, 00:17:00,VALID,917.766,VALID,0,VALID,97.4558,VALID,-0.0849042,VALID,18.5306,VALID,222,VALID,0,
2000-12-15, 00:18:00,VALID,917.757,VALID,0,VALID,97.4736,VALID,-0.118866,VALID,18.5336,VALID,222,VALID,0,
2000-12-15, 00:19:00,VALID,917.76,VALID,0,VALID,97.4558,VALID,-0.0849042,VALID,18.5398,VALID,223,VALID,0,
2000-12-15, 00:20:00,VALID,917.751,VALID,0,VALID,97.4456,VALID,0,VALID,18.5553,VALID,224,VALID,0,
2000-12-15, 00:21:00,VALID,917.731,VALID,0,VALID,97.471,VALID,0,VALID,18.5648,VALID,216,VALID,0.160156,
2000-12-15, 00:22:00,VALID,917.712,VALID,0,VALID,97.5079,VALID,0,VALID,18.5747,VALID,218,VALID,0.325321,
2000-12-15, 00:23:00,VALID,917.705,VALID,0,VALID,97.527,VALID,0,VALID,18.5906,VALID,207,VALID,0.0460526,
2000-12-15, 00:24:00,VALID,917.695,VALID,0,VALID,97.4965,VALID,-0.0169808,VALID,18.5973,VALID,206,VALID,0,
2000-12-15, 00:25:00,VALID,917.689,VALID,0,VALID,97.4914,VALID,0,VALID,18.5809,VALID,206,VALID,0.000585938,
2000-12-15, 00:26:00,VALID,917.658,VALID,0,VALID,97.5143,VALID,-0.0169808,VALID,18.5904,VALID,206,VALID,0.0172276,
2000-12-15, 00:27:00,VALID,917.654,VALID,0,VALID,97.5486,VALID,0,VALID,18.5936,VALID,207,VALID,0.0115132,
2000-12-15, 00:28:01,VALID,917.628,VALID,0,VALID,97.541,VALID,-0.0169808,VALID,18.6003,VALID,207,VALID,0.237109,
2000-12-15, 00:29:00,VALID,917.634,VALID,0,VALID,97.541,VALID,0,VALID,18.6134,VALID,207,VALID,0.12168,
2000-12-15, 00:30:00,VALID,917.619,VALID,0,VALID,97.4672,VALID,0,VALID,18.607,VALID,206,VALID,0,
2000-12-15, 00:31:00,VALID,917.627,VALID,0,VALID,97.3083,VALID,0,VALID,18.5804,VALID,206,VALID,0,
2000-12-15, 00:32:01,VALID,917.641,VALID,0,VALID,97.1213,VALID,0.0169808,VALID,18.5908,VALID,206,VALID,0,
2000-12-15, 00:33:00,VALID,917.655,VALID,0,VALID,96.9777,VALID,0,VALID,18.5772,VALID,206,VALID,0,
2000-12-15, 00:34:00,VALID,917.678,VALID,0,VALID,96.8886,VALID,0,VALID,18.5809,VALID,206,VALID,0,
2000-12-15, 00:35:00,VALID,917.698,VALID,0,VALID,96.8111,VALID,0,VALID,18.5749,VALID,206,VALID,0,
2000-12-15, 00:36:00,VALID,917.704,VALID,0,VALID,96.7742,VALID,0,VALID,18.5518,VALID,206,VALID,0,
2000-12-15, 00:37:00,VALID,917.716,VALID,0,VALID,96.7793,VALID,0,VALID,18.532,VALID,206,VALID,0.158398,
2000-12-15, 00:38:00,VALID,917.702,VALID,0,VALID,96.7475,VALID,0,VALID,18.5322,VALID,205,VALID,0.0687099,
2000-12-15, 00:39:00,VALID,917.703,VALID,0,VALID,96.7589,VALID,0,VALID,18.5355,VALID,191,VALID,0,
2000-12-15, 00:40:01,VALID,917.688,VALID,0,VALID,96.8632,VALID,0,VALID,18.5618,VALID,185,VALID,0,
2000-12-15, 00:41:00,VALID,917.686,VALID,0,VALID,96.6992,VALID,0,VALID,18.5592,VALID,183,VALID,0,
2000-12-15, 00:42:00,VALID,917.663,VALID,0,VALID,96.5084,VALID,0,VALID,18.5163,VALID,183,VALID,0,
2000-12-15, 00:43:00,VALID,917.654,VALID,0,VALID,96.4703,VALID,0,VALID,18.481,VALID,183,VALID,0,
2000-12-15, 00:44:01,VALID,917.651,VALID,0,VALID,96.6712,VALID,-0.0339617,VALID,18.4582,VALID,181,VALID,0,
2000-12-15, 00:45:00,VALID,917.642,VALID,0,VALID,96.7691,VALID,-0.0169808,VALID,18.4522,VALID,180,VALID,0,
2000-12-15, 00:46:00,VALID,917.614,VALID,0,VALID,96.6699,VALID,0,VALID,18.4356,VALID,173,VALID,0,
2000-12-15, 00:47:00,VALID,917.614,VALID,0,VALID,96.5987,VALID,0,VALID,18.4457,VALID,167,VALID,0.354441,
2000-12-15, 00:48:00,VALID,917.605,VALID,0,VALID,96.455,VALID,0,VALID,18.4353,VALID,184,VALID,0.881641,
2000-12-15, 00:49:00,VALID,917.599,VALID,0,VALID,96.3787,VALID,0,VALID,18.4452,VALID,199,VALID,0.604102,
2000-12-15, 00:50:00,VALID,917.591,VALID,0,VALID,96.4385,VALID,0.0169808,VALID,18.436,VALID,194,VALID,0.661458,
2000-12-15, 00:51:00,VALID,917.584,VALID,0,VALID,96.5351,VALID,0,VALID,18.406,VALID,196,VALID,0.499383,
2000-12-15, 00:52:01,VALID,917.566,VALID,0,VALID,96.6191,VALID,0,VALID,18.4,VALID,196,VALID,0.256445,
2000-12-15, 00:53:00,VALID,917.55,VALID,0,VALID,96.6102,VALID,-0.0169808,VALID,18.3744,VALID,204,VALID,0,
2000-12-15, 00:54:00,VALID,917.501,VALID,0,VALID,96.7462,VALID,0,VALID,18.3682,VALID,213,VALID,0,
2000-12-15, 00:55:00,VALID,917.465,VALID,0,VALID,96.9611,VALID,0,VALID,18.3647,VALID,220,VALID,0,
2000-12-15, 00:56:01,VALID,917.438,VALID,0,VALID,97.2027,VALID,0,VALID,18.3714,VALID,212,VALID,0,
2000-12-15, 00:57:00,VALID,917.428,VALID,0,VALID,97.382,VALID,-0.0169808,VALID,18.3652,VALID,212,VALID,0,
2000-12-15, 00:58:00,VALID,917.424,VALID,0,VALID,97.5562,VALID,0,VALID,18.3876,VALID,212,VALID,0,
2000-12-15, 00:59:00,VALID,917.414,VALID,0,VALID,97.5511,VALID,0,VALID,18.3779,VALID,212,VALID,0,
2000-12-15, 01:00:00,VALID,917.425,VALID,0,VALID,97.5308,VALID,-0.0169808,VALID,18.3652,VALID,212,VALID,0,
2000-12-15, 01:01:00,VALID,917.44,VALID,0,VALID,97.3858,VALID,-0.0169808,VALID,18.3202,VALID,212,VALID,0,
2000-12-15, 01:02:00,VALID,917.451,VALID,0,VALID,97.2307,VALID,0,VALID,18.2778,VALID,212,VALID,0,
2000-12-15, 01:03:00,VALID,917.458,VALID,0,VALID,97.0489,VALID,0,VALID,18.2258,VALID,212,VALID,0,
2000-12-15, 01:04:01,VALID,917.452,VALID,0,VALID,96.9306,VALID,-0.0169808,VALID,18.1749,VALID,212,VALID,0,
2000-12-15, 01:05:00,VALID,917.441,VALID,0,VALID,97.0209,VALID,0,VALID,18.1356,VALID,212,VALID,0,
2000-12-15, 01:06:00,VALID,917.428,VALID,0,VALID,97.0908,VALID,-0.0169808,VALID,18.1195,VALID,212,VALID,0,
2000-12-15, 01:07:00,VALID,917.42,VALID,0,VALID,97.1175,VALID,0.0169808,VALID,18.0773,VALID,211,VALID,0,
2000-12-15, 01:08:01,VALID,917.44,VALID,0,VALID,97.1697,VALID,-0.0169808,VALID,18.0517,VALID,211,VALID,0,
2000-12-15, 01:09:00,VALID,917.432,VALID,0,VALID,97.2739,VALID,0,VALID,18.036,VALID,211,VALID,0,
2000-12-15, 01:10:00,VALID,917.437,VALID,0,VALID,97.4176,VALID,0,VALID,18.0099,VALID,203,VALID,0,
2000-12-15, 01:11:00,VALID,917.448,VALID,0,VALID,97.7444,VALID,0,VALID,18.0318,VALID,165,VALID,0,
2000-12-15, 01:12:00,VALID,917.44,VALID,0,VALID,98.0026,VALID,0,VALID,18.1063,VALID,165,VALID,0,
2000-12-15, 01:13:00,VALID,917.449,VALID,0,VALID,97.7902,VALID,0,VALID,18.1781,VALID,147,VALID,0,
2000-12-15, 01:14:00,VALID,917.448,VALID,0,VALID,97.4952,VALID,-0.0169808,VALID,18.2074,VALID,147,VALID,0,
2000-12-15, 01:15:00,VALID,917.458,VALID,0,VALID,97.335,VALID,-0.0339617,VALID,18.2201,VALID,147,VALID,0,
2000-12-15, 01:16:01,VALID,917.44,VALID,0,VALID,97.2612,VALID,-0.0169808,VALID,18.2265,VALID,178,VALID,0,
2000-12-15, 01:17:00,VALID,917.418,VALID,0,VALID,97.1213,VALID,-0.0169808,VALID,18.2069,VALID,219,VALID,0.223047,
2000-12-15, 01:18:00,VALID,917.39,VALID,0,VALID,97.19,VALID,0,VALID,18.1972,VALID,195,VALID,0.750601,
2000-12-15, 01:19:00,VALID,917.371,VALID,0,VALID,97.2854,VALID,0,VALID,18.1875,VALID,191,VALID,0.775288,
2000-12-15, 01:20:01,VALID,917.336,VALID,0,VALID,97.2358,VALID,0,VALID,18.1878,VALID,167,VALID,0.686914,
2000-12-15, 01:21:00,VALID,917.319,VALID,0,VALID,97.0145,VALID,-0.0169808,VALID,18.1356,VALID,156,VALID,0.71543,
2000-12-15, 01:22:00,VALID,917.293,VALID,0,VALID,96.9281,VALID,0,VALID,18.1008,VALID,159,VALID,0.706731,
2000-12-15, 01:23:00,VALID,917.288,VALID,0,VALID,97.059,VALID,0,VALID,18.0519,VALID,151,VALID,0.651521,
2000-12-15, 01:24:00,VALID,917.282,VALID,0,VALID,97.1023,VALID,-0.0169808,VALID,18.0198,VALID,141,VALID,0.495313,
2000-12-15, 01:25:00,VALID,917.28,VALID,0,VALID,97.7571,VALID,0,VALID,18.039,VALID,164,VALID,0.670898,
2000-12-15, 01:26:00,VALID,917.251,VALID,0,VALID,98.1412,VALID,0.0169808,VALID,18.107,VALID,171,VALID,0.498397,
2000-12-15, 01:27:00,VALID,917.247,VALID,0,VALID,98.0712,VALID,-0.0169808,VALID,18.1066,VALID,170,VALID,0.292352,
2000-12-15, 01:28:01,VALID,917.236,VALID,0,VALID,98.1577,VALID,0,VALID,18.0939,VALID,170,VALID,0.486133,
2000-12-15, 01:29:00,VALID,917.224,VALID,0,VALID,98.2365,VALID,-0.0169808,VALID,18.11,VALID,170,VALID,0.463477,
2000-12-15, 01:30:00,VALID,917.2,VALID,0,VALID,98.2874,VALID,-0.0169808,VALID,18.1264,VALID,171,VALID,0.450921,
2000-12-15, 01:31:00,VALID,917.193,VALID,0,VALID,98.1946,VALID,0.0169808,VALID,18.1033,VALID,160,VALID,0.445929,
2000-12-15, 01:32:01,VALID,917.167,VALID,0,VALID,98.0394,VALID,0.0169808,VALID,18.0715,VALID,156,VALID,0.451953,
2000-12-15, 01:33:00,VALID,917.149,VALID,0,VALID,98.1259,VALID,0.0169808,VALID,18.0618,VALID,184,VALID,0.734375,
2000-12-15, 01:34:00,VALID,917.136,VALID,0,VALID,98.1895,VALID,0,VALID,18.0941,VALID,194,VALID,0.763021,
2000-12-15, 01:35:00,VALID,917.103,VALID,0,VALID,98.2671,VALID,-0.0169808,VALID,18.149,VALID,186,VALID,0.904605,
2000-12-15, 01:36:00,VALID,917.065,VALID,0,VALID,98.2671,VALID,0,VALID,18.2106,VALID,182,VALID,0.870508,
2000-12-15, 01:37:00,VALID,917.039,VALID,0,VALID,98.1615,VALID,-0.0339617,VALID,18.2491,VALID,188,VALID,0.555273,
2000-12-15, 01:38:00,VALID,917.006,VALID,0,VALID,97.7699,VALID,0,VALID,18.2265,VALID,172,VALID,0.361378,
2000-12-15, 01:39:01,VALID,916.96,VALID,0,VALID,97.6859,VALID,0,VALID,18.2138,VALID,171,VALID,0.518298,
2000-12-15, 01:40:01,VALID,916.919,VALID,0,VALID,97.6516,VALID,0.0169808,VALID,18.2136,VALID,165,VALID,0.498437,
2000-12-15, 01:41:00,VALID,916.9,VALID,0,VALID,97.6414,VALID,-0.0169808,VALID,18.2037,VALID,165,VALID,0.376172,
2000-12-15, 01:42:00,VALID,916.871,VALID,0,VALID,97.6325,VALID,-0.0339617,VALID,18.2071,VALID,174,VALID,0.0959535,
2000-12-15, 01:43:00,VALID,916.828,VALID,0,VALID,97.761,VALID,0.0169808,VALID,18.2002,VALID,189,VALID,0.400082,
2000-12-15, 01:44:01,VALID,916.811,VALID,0,VALID,97.8385,VALID,0,VALID,18.2201,VALID,191,VALID,0.251758,
2000-12-15, 01:45:00,VALID,916.791,VALID,0,VALID,97.8767,VALID,-0.0509425,VALID,18.227,VALID,199,VALID,0.335547,
2000-12-15, 01:46:00,VALID,916.773,VALID,0,VALID,97.9301,VALID,-0.0339617,VALID,18.233,VALID,203,VALID,0.325321,
2000-12-15, 01:47:00,VALID,916.743,VALID,0,VALID,97.9771,VALID,-0.0679233,VALID,18.2367,VALID,206,VALID,0.0984786,
2000-12-15, 01:48:00,VALID,916.728,VALID,0,VALID,97.9708,VALID,-0.0169808,VALID,18.239,VALID,206,VALID,0,
2000-12-15, 01:49:00,VALID,916.708,VALID,0,VALID,97.9657,VALID,0,VALID,18.2298,VALID,206,VALID,0.0722656,
2000-12-15, 01:50:00,VALID,916.694,VALID,0,VALID,97.9606,VALID,0,VALID,18.2164,VALID,212,VALID,0.0260417,
2000-12-15, 01:51:01,VALID,916.686,VALID,0,VALID,97.9873,VALID,-0.0509425,VALID,18.2272,VALID,248,VALID,0.262747,
2000-12-15, 01:52:01,VALID,916.688,VALID,0,VALID,97.9797,VALID,-0.0339617,VALID,18.2071,VALID,247,VALID,0.168945,
2000-12-15, 01:53:01,VALID,916.687,VALID,0,VALID,97.9797,VALID,-0.0169808,VALID,18.191,VALID,224,VALID,0,
2000-12-15, 01:54:00,VALID,916.699,VALID,0,VALID,97.9924,VALID,-0.0339617,VALID,18.1686,VALID,222,VALID,0,
2000-12-15, 01:55:01,VALID,916.702,VALID,0,VALID,98.0102,VALID,-0.0169808,VALID,18.1522,VALID,222,VALID,0,
2000-12-15, 01:56:01,VALID,916.701,VALID,0,VALID,98.1463,VALID,-0.0169808,VALID,18.1619,VALID,222,VALID,0,
2000-12-15, 01:57:01,VALID,916.712,VALID,0,VALID,98.2493,VALID,0,VALID,18.1749,VALID,222,VALID,0,
2000-12-15, 01:58:01,VALID,916.715,VALID,0,VALID,98.2175,VALID,-0.0169808,VALID,18.1686,VALID,220,VALID,0,
2000-12-15, 01:59:01,VALID,916.719,VALID,0,VALID,98.0674,VALID,0,VALID,18.1008,VALID,199,VALID,0,
2000-12-15, 02:00:01,VALID,916.728,VALID,0,VALID,97.9657,VALID,-0.0169808,VALID,18.059,VALID,199,VALID,0,
2000-12-15, 02:01:01,VALID,916.748,VALID,0,VALID,97.9466,VALID,0,VALID,18.0198,VALID,199,VALID,0,
2000-12-15, 02:02:01,VALID,916.74,VALID,0,VALID,98.0077,VALID,-0.0169808,VALID,18.0037,VALID,199,VALID,0,
2000-12-15, 02:03:01,VALID,916.74,VALID,0,VALID,98.1488,VALID,0,VALID,17.9935,VALID,199,VALID,0,
2000-12-15, 02:04:01,VALID,916.721,VALID,0,VALID,98.3434,VALID,-0.0339617,VALID,18.0364,VALID,180,VALID,0.479883,
2000-12-15, 02:05:01,VALID,916.73,VALID,0,VALID,98.384,VALID,-0.0679233,VALID,18.0493,VALID,172,VALID,0.5625,
2000-12-15, 02:06:01,VALID,916.721,VALID,0,VALID,98.454,VALID,-0.0679233,VALID,18.0588,VALID,172,VALID,0.660857,
2000-12-15, 02:07:01,VALID,916.721,VALID,0,VALID,98.5074,VALID,-0.0169808,VALID,18.0717,VALID,172,VALID,0.599507,
2000-12-15, 02:08:01,VALID,916.718,VALID,0,VALID,98.5074,VALID,-0.0169808,VALID,18.0713,VALID,172,VALID,0.385156,
2000-12-15, 02:09:01,VALID,916.715,VALID,0,VALID,98.5315,VALID,0,VALID,18.0648,VALID,172,VALID,0.266406,
2000-12-15, 02:10:01,VALID,916.707,VALID,0,VALID,98.4349,VALID,-0.0169808,VALID,18.0427,VALID,155,VALID,0.479968,
2000-12-15, 02:11:01,VALID,916.695,VALID,0,VALID,98.2785,VALID,-0.0509425,VALID,18.0007,VALID,133,VALID,0.333059,
2000-12-15, 02:12:01,VALID,916.684,VALID,0,VALID,98.1615,VALID,-0.0169808,VALID,17.9552,VALID,133,VALID,0.337305,
2000-12-15, 02:13:01,VALID,916.674,VALID,0,VALID,98.0992,VALID,-0.0339617,VALID,17.9395,VALID,133,VALID,0.102539,
2000-12-15, 02:14:01,VALID,916.655,VALID,0,VALID,98.0585,VALID,-0.0509425,VALID,17.9072,VALID,133,VALID,0,
2000-12-15, 02:15:00,VALID,916.63,VALID,0,VALID,98.1437,VALID,-0.0679233,VALID,17.9038,VALID,133,VALID,0,
2000-12-15, 02:16:00,VALID,916.616,VALID,0,VALID,98.1552,VALID,-0.0169808,VALID,17.9236,VALID,133,VALID,0,
2000-12-15, 02:17:00,VALID,916.601,VALID,0,VALID,98.1335,VALID,-0.0679233,VALID,17.8971,VALID,129,VALID,0.101953,
2000-12-15, 02:18:00,VALID,916.594,VALID,0,VALID,98.2429,VALID,-0.0339617,VALID,17.9393,VALID,95,VALID,0.0963542,
2000-12-15, 02:19:00,VALID,916.577,VALID,0,VALID,98.3192,VALID,-0.0169808,VALID,18.0041,VALID,95,VALID,0.0740132,
2000-12-15, 02:20:00,VALID,916.562,VALID,0,VALID,98.2963,VALID,0.0169808,VALID,18.0279,VALID,95,VALID,0,
2000-12-15, 02:21:00,VALID,916.544,VALID,0,VALID,98.1958,VALID,0.0509425,VALID,18.0579,VALID,95,VALID,0,
2000-12-15, 02:22:00,VALID,916.535,VALID,0,VALID,98.0661,VALID,0.0509425,VALID,18.0517,VALID,95,VALID,0,
2000-12-15, 02:23:00,VALID,916.524,VALID,0,VALID,97.8017,VALID,0.0339617,VALID,18.0127,VALID,95,VALID,0,
2000-12-15, 02:24:00,VALID,916.519,VALID,0,VALID,97.7788,VALID,0.0169808,VALID,17.9859,VALID,95,VALID,0,
2000-12-15, 02:25:00,VALID,916.509,VALID,0,VALID,97.7457,VALID,0.0679233,VALID,17.9965,VALID,95,VALID,0,
2000-12-15, 02:26:00,VALID,916.501,VALID,0,VALID,97.7749,VALID,0.0509425,VALID,18.003,VALID,95,VALID,0,
2000-12-15, 02:27:00,VALID,916.487,VALID,0,VALID,97.7864,VALID,0.0509425,VALID,18.0318,VALID,95,VALID,0,
2000-12-15, 02:28:00,VALID,916.488,VALID,0,VALID,97.6859,VALID,0.0509425,VALID,18.0286,VALID,44,VALID,0,
2000-12-15, 02:29:00,VALID,916.499,VALID,0,VALID,97.7838,VALID,0.0509425,VALID,18.0706,VALID,314,VALID,0,
2000-12-15, 02:30:00,VALID,916.486,VALID,0,VALID,97.7368,VALID,0.0849042,VALID,18.1024,VALID,313,VALID,0,
2000-12-15, 02:31:00,VALID,916.474,VALID,0,VALID,97.5715,VALID,0.0509425,VALID,18.1027,VALID,279,VALID,0,
2000-12-15, 02:32:00,VALID,916.471,VALID,0,VALID,97.438,VALID,0.0509425,VALID,18.093,VALID,278,VALID,0,
2000-12-15, 02:33:00,VALID,916.467,VALID,0,VALID,97.4392,VALID,0.0849042,VALID,18.1093,VALID,278,VALID,0,
2000-12-15, 02:34:00,VALID,916.46,VALID,0,VALID,97.4176,VALID,0.0849042,VALID,18.1414,VALID,278,VALID,0,
2000-12-15, 02:35:00,VALID,916.456,VALID,0,VALID,97.3273,VALID,0.0169808,VALID,18.1742,VALID,278,VALID,0,
2000-12-15, 02:36:00,VALID,916.471,VALID,0,VALID,97.1442,VALID,0.0509425,VALID,18.1548,VALID,277,VALID,0,
2000-12-15, 02:37:00,VALID,916.448,VALID,0,VALID,97.1671,VALID,0.0849042,VALID,18.1476,VALID,251,VALID,0,
2000-12-15, 02:38:00,VALID,916.44,VALID,0,VALID,97.1519,VALID,0.0339617,VALID,18.1608,VALID,222,VALID,0,
2000-12-15, 02:39:00,VALID,916.442,VALID,0,VALID,97.1875,VALID,0.0679233,VALID,18.1774,VALID,229,VALID,0,
2000-12-15, 02:40:00,VALID,916.441,VALID,0,VALID,97.0845,VALID,0.0509425,VALID,18.1707,VALID,229,VALID,0,
2000-12-15, 02:41:00,VALID,916.435,VALID,0,VALID,97.0285,VALID,0.0339617,VALID,18.1645,VALID,229,VALID,0,
2000-12-15, 02:42:00,VALID,916.456,VALID,0,VALID,97.0387,VALID,0.0339617,VALID,18.135,VALID,229,VALID,0,
2000-12-15, 02:43:00,VALID,916.451,VALID,0,VALID,97.0171,VALID,0.0509425,VALID,18.1262,VALID,228,VALID,0,
2000-12-15, 02:44:00,VALID,916.439,VALID,0,VALID,97.0336,VALID,0.0339617,VALID,18.1036,VALID,229,VALID,0,
2000-12-15, 02:45:00,VALID,916.432,VALID,0,VALID,97.0679,VALID,0,VALID,18.0777,VALID,241,VALID,0,
2000-12-15, 02:46:00,VALID,916.41,VALID,0,VALID,97.1811,VALID,0.0679233,VALID,18.0512,VALID,234,VALID,0,
2000-12-15, 02:47:00,VALID,916.405,VALID,0,VALID,97.218,VALID,0.0509425,VALID,18.0348,VALID,207,VALID,0,
2000-12-15, 02:48:00,VALID,916.387,VALID,0,VALID,97.0629,VALID,0.0339617,VALID,18.0064,VALID,186,VALID,0,
2000-12-15, 02:49:00,VALID,916.364,VALID,0,VALID,97.1379,VALID,0.0169808,VALID,17.9705,VALID,133,VALID,0,
2000-12-15, 02:50:00,VALID,916.339,VALID,0,VALID,97.148,VALID,-0.0679233,VALID,17.9656,VALID,117,VALID,0,
2000-12-15, 02:51:00,VALID,916.335,VALID,0,VALID,97.1697,VALID,-0.0339617,VALID,17.9499,VALID,119,VALID,0,
2000-12-15, 02:52:00,VALID,916.325,VALID,0,VALID,97.4634,VALID,-0.0339617,VALID,17.9654,VALID,123,VALID,0.535937,
2000-12-15, 02:53:00,VALID,916.316,VALID,0,VALID,97.4545,VALID,-0.0849042,VALID,18.0138,VALID,132,VALID,0.637005,
2000-12-15, 02:54:00,VALID,916.3,VALID,0,VALID,97.4087,VALID,-0.0849042,VALID,18.0597,VALID,143,VALID,0.78766,
2000-12-15, 02:55:00,VALID,916.293,VALID,0,VALID,97.1544,VALID,-0.0339617,VALID,18.1239,VALID,135,VALID,0.775493,
2000-12-15, 02:56:00,VALID,916.281,VALID,0,VALID,96.7068,VALID,-0.0679233,VALID,18.1947,VALID,141,VALID,0.466406,
2000-12-15, 02:57:00,VALID,916.27,VALID,0,VALID,96.3228,VALID,-0.0849042,VALID,18.2431,VALID,142,VALID,0.530273,
2000-12-15, 02:58:00,VALID,916.256,VALID,0,VALID,95.9858,VALID,-0.0679233,VALID,18.26,VALID,142,VALID,0.429888,
2000-12-15, 02:59:00,VALID,916.245,VALID,0,VALID,95.8116,VALID,-0.0679233,VALID,18.2399,VALID,141,VALID,0.398232,
2000-12-15, 03:00:00,VALID,916.233,VALID,0,VALID,96.0214,VALID,-0.0679233,VALID,18.2337,VALID,141,VALID,0.388867,
2000-12-15, 03:01:00,VALID,916.209,VALID,0,VALID,96.0545,VALID,-0.0679233,VALID,18.2009,VALID,136,VALID,0.255664,
2000-12-15, 03:02:00,VALID,916.193,VALID,0,VALID,96.071,VALID,-0.0849042,VALID,18.1719,VALID,135,VALID,0,
2000-12-15, 03:03:00,VALID,916.174,VALID,0,VALID,96.1816,VALID,-0.0339617,VALID,18.143,VALID,135,VALID,0,
2000-12-15, 03:04:00,VALID,916.16,VALID,0,VALID,96.4296,VALID,-0.0339617,VALID,18.1266,VALID,135,VALID,0,
2000-12-15, 03:05:00,VALID,916.157,VALID,0,VALID,96.586,VALID,0,VALID,18.1389,VALID,140,VALID,0,
2000-12-15, 03:06:00,VALID,916.151,VALID,0,VALID,96.441,VALID,0.0169808,VALID,18.1682,VALID,150,VALID,0,
2000-12-15, 03:07:00,VALID,916.154,VALID,0,VALID,96.1155,VALID,0,VALID,18.2101,VALID,150,VALID,0,
2000-12-15, 03:08:00,VALID,916.151,VALID,0,VALID,95.8116,VALID,0.0169808,VALID,18.2129,VALID,149,VALID,0,
2000-12-15, 03:09:00,VALID,916.163,VALID,0,VALID,95.5941,VALID,0,VALID,18.2032,VALID,115,VALID,0.310156,
2000-12-15, 03:10:00,VALID,916.156,VALID,0,VALID,95.6272,VALID,0.0339617,VALID,18.2132,VALID,95,VALID,0.567107,
2000-12-15, 03:11:00,VALID,916.164,VALID,0,VALID,95.6285,VALID,0.0679233,VALID,18.2521,VALID,88,VALID,0.726357,
2000-12-15, 03:12:00,VALID,916.151,VALID,0,VALID,95.2724,VALID,0.0339617,VALID,18.3098,VALID,85,VALID,0.65,
2000-12-15, 03:13:00,VALID,916.146,VALID,0,VALID,94.8057,VALID,0.0169808,VALID,18.3622,VALID,86,VALID,0.831055,
2000-12-15, 03:14:00,VALID,916.134,VALID,0,VALID,94.4192,VALID,0.0339617,VALID,18.4236,VALID,87,VALID,0.805689,
2000-12-15, 03:15:00,VALID,916.139,VALID,0,VALID,94.0593,VALID,0.0169808,VALID,18.4556,VALID,88,VALID,0.695724,
2000-12-15, 03:16:00,VALID,916.107,VALID,0,VALID,93.6728,VALID,0.0339617,VALID,18.5009,VALID,104,VALID,0.478906,
2000-12-15, 03:17:00,VALID,916.103,VALID,0,VALID,93.3103,VALID,0.0339617,VALID,18.5391,VALID,99,VALID,0.43457,
2000-12-15, 03:18:00,VALID,916.082,VALID,0,VALID,93.0153,VALID,0,VALID,18.5779,VALID,106,VALID,0.42508,
2000-12-15, 03:19:00,VALID,916.094,VALID,0,VALID,92.9085,VALID,0,VALID,18.6047,VALID,104,VALID,0.329359,
2000-12-15, 03:20:00,VALID,916.061,VALID,0,VALID,92.8831,VALID,-0.101885,VALID,18.6091,VALID,95,VALID,0.303125,
2000-12-15, 03:21:00,VALID,916.058,VALID,0,VALID,92.8793,VALID,-0.101885,VALID,18.6158,VALID,95,VALID,0.449219,
2000-12-15, 03:22:00,VALID,916.032,VALID,0,VALID,92.7699,VALID,-0.101885,VALID,18.5962,VALID,97,VALID,0.70633,
2000-12-15, 03:23:00,VALID,916.009,VALID,0,VALID,92.644,VALID,-0.101885,VALID,18.6215,VALID,100,VALID,0.715049,
2000-12-15, 03:24:00,VALID,915.982,VALID,0,VALID,92.4342,VALID,-0.101885,VALID,18.6832,VALID,90,VALID,0.460352,
2000-12-15, 03:25:00,VALID,915.975,VALID,0,VALID,92.3681,VALID,-0.0849042,VALID,18.6963,VALID,23,VALID,0.530469,
2000-12-15, 03:26:00,VALID,915.971,VALID,0,VALID,92.3744,VALID,-0.0849042,VALID,18.712,VALID,338,VALID,0.49359,
2000-12-15, 03:27:00,VALID,915.955,VALID,0,VALID,92.157,VALID,-0.0849042,VALID,18.7346,VALID,33,VALID,0.343544,
2000-12-15, 03:28:00,VALID,915.946,VALID,0,VALID,91.9523,VALID,-0.0679233,VALID,18.7572,VALID,50,VALID,0.110156,
2000-12-15, 03:29:00,VALID,915.938,VALID,0,VALID,92.1214,VALID,-0.0849042,VALID,18.7187,VALID,50,VALID,0,
2000-12-15, 03:30:00,VALID,915.927,VALID,0,VALID,92.5792,VALID,-0.0849042,VALID,18.6799,VALID,5,VALID,0.177684,
2000-12-15, 03:31:00,VALID,915.935,VALID,0,VALID,92.9899,VALID,-0.0849042,VALID,18.6379,VALID,349,VALID,0.49301,
2000-12-15, 03:32:00,VALID,915.934,VALID,0,VALID,93.2964,VALID,-0.101885,VALID,18.6052,VALID,357,VALID,0.157227,
2000-12-15, 03:33:00,VALID,915.936,VALID,0,VALID,93.4985,VALID,-0.0849042,VALID,18.5996,VALID,357,VALID,0,
2000-12-15, 03:34:00,VALID,915.93,VALID,0,VALID,93.702,VALID,-0.0509425,VALID,18.5565,VALID,352,VALID,0.031851,
2000-12-15, 03:35:00,VALID,915.94,VALID,0,VALID,93.5074,VALID,0.0169808,VALID,18.5528,VALID,89,VALID,0.1581,
2000-12-15, 03:36:00,VALID,915.928,VALID,0,VALID,93.5519,VALID,0,VALID,18.52,VALID,58,VALID,0,
2000-12-15, 03:37:00,VALID,915.934,VALID,0,VALID,93.8431,VALID,0.0339617,VALID,18.5039,VALID,318,VALID,0,
2000-12-15, 03:38:00,VALID,915.949,VALID,0,VALID,93.9194,VALID,0.0339617,VALID,18.478,VALID,348,VALID,0,
2000-12-15, 03:39:00,VALID,915.94,VALID,0,VALID,94.0135,VALID,0.0339617,VALID,18.4715,VALID,91,VALID,0.203947,